Location: Melbourne
(37.8170°S, 144.9670°E)
Time: 13:28:05
(UTC+11:00)

Vanguard 1 Rocket - Visible Passes

Search period start: 03 December 2016 00:00
Search period end: 13 December 2016 00:00
Orbit: 651 x 4226 km, 34.3° (Epoch: 29 November)

Date Brightness Start Highest point End Pass type
(mag) Time Alt. Az. Time Alt. Az. Time Alt. Az.
07 Dec 9.1 04:30:11 10° NNE 04:31:37 11° NE 04:33:09 10° ENE visible
09 Dec 8.8 04:31:46 11° N 04:34:24 17° NE 04:37:44 10° ENE visible
11 Dec 8.3 04:34:44 15° NNW 04:37:19 23° NNE 04:41:27 10° E visible
12 Dec 9.0 03:27:33 11° NE 03:27:33 11° NE 03:28:19 10° NE visible
